Home > Weather > San Antonio > Past weeks

Flag for U.S.A. Weather for the Past 2 Weeks in San Antonio, Texas, U.S.A.

Now
59 °F

Sunny.


Feels Like: 58 °F
Forecast: 45 / 79 °F
Wind: 6 mph from Southwest

Location: San Antonio International Airport

Current Time: Feb 11, 2016 at 9:48:43 AM

Latest Report: Feb 11, 2016 at 8:51 AM


Visibility: 10 mi

Pressure: 30.15 "Hg

Humidity: 41%

Dew point: 35 °F

Location of San AntonioLocation

Historic Weather in San Antonio — Graph

°F

San Antonio Temperature Yesterday

Maximum temperature yesterday: 74 °F (at 3:51 PM)
Minimum temperature yesterday: 44 °F (at 1:51 AM)
Average temperature yesterday: 59 °F

High & Low Weather Summary for the Past Weeks

 TemperatureHumidityPressure
High83 °F (Jan 31, 4:51 PM)100% (Feb 1, 7:51 AM)30.49 "Hg (Feb 1, 7:51 AM)
Low31 °F (Feb 7, 6:51 AM)16% (Feb 8, 11:51 AM)29.49 "Hg (Feb 1, 7:51 PM)
Average54 °F49%30.12 "Hg
* Reported Jan 27 7:51 AM — Feb 11 7:51 AM, San Antonio, Weather by CustomWeather, © 2016

Note: Actual official high and low records may vary slightly from our data, if they occured in-between our weather recording intervals... More about our weather records

Advertising

San Antonio Weather History for the Previous 24 Hours

 ConditionsComfort  
Time TempWeatherWind HumidityBarometerVisibility
7:51 AM
Thu, Feb 11
46 °FSunny.No wind63%30.14 "Hg10 mi
6:51 AM45 °FClear.3 mph63%30.14 "Hg10 mi
5:51 AM44 °FClear.No wind65%30.13 "Hg10 mi
4:51 AM51 °FClear.5 mph48%30.12 "Hg10 mi
3:51 AM48 °FClear.5 mph56%30.13 "Hg10 mi
2:51 AM54 °FClear.7 mph45%30.13 "Hg10 mi
1:51 AM55 °FClear.7 mph51%30.14 "Hg10 mi
12:51 AM54 °FClear.5 mph53%30.15 "Hg10 mi
11:51 PM
Wed, Feb 10
57 °FClear.7 mph49%30.17 "Hg10 mi
10:51 PM59 °FClear.6 mph41%30.18 "Hg10 mi
9:51 PM55 °FClear.No wind47%30.19 "Hg10 mi
8:51 PM65 °FClear.3 mph26%30.19 "Hg10 mi
7:51 PM68 °FClear.5 mph23%30.19 "Hg10 mi
6:51 PM69 °FClear.6 mph21%30.19 "Hg10 mi
5:51 PM72 °FSunny.6 mph20%30.19 "Hg10 mi
4:51 PM74 °FSunny.12 mph20%30.20 "Hg10 mi
3:51 PM74 °FSunny.13 mph21%30.21 "Hg10 mi
2:51 PM73 °FSunny.9 mph22%30.23 "Hg10 mi
1:51 PM71 °FPassing clouds.5 mph23%30.26 "Hg10 mi
12:51 PM67 °FPassing clouds.No wind27%30.30 "Hg10 mi
11:51 AM62 °FPassing clouds.No wind31%30.34 "Hg10 mi
10:51 AM59 °FSunny.3 mph33%30.36 "Hg10 mi
9:51 AM57 °FSunny.8 mph36%30.37 "Hg10 mi
Weather by CustomWeather, © 2016

See weather overviewHow to use our weather pages